Language: 


Des rapports , des résumés tant et plus, au choix de chacun....


Données statistiques de la station
Quotidien Rapport Janvier 14, 2018 Unités:  Anglais    Métrique   les deux
« Précédent Jour
Suivant Jour »
Quotidien Hebdomadaire Mensuel Annuel Actuel
  Haut: Bas: Moyen:
Température: TemperatureC °F 0.3 °F 2.5 °F
Pt de rosée: DewpointC °F 1.0 °F 2.1 °F
Humidité: Humidity % 83 % 95 %
Vitesse du vent: WindSpeedKMH mph 0.0 mph 2.5 mph
Rafales: WindSpeedGustKMH mph - -
Vent:- - East
Pression: PressurehPa in 1016.1 in -
Précipitation: 0.0 in    
Historical Graphs
 
 
Données statistiques pour Janvier 14, 2018
Heure Température Point de rosée Pression Vent Vitesse du vent Refales Humidité Pluie (taux horaire)
TemperatureC °F DewpointC °F PressurehPa in Calm     Humidity % HourlyPrecipMM in
00:20 2.9 °F 2.0 °F 1018.2 in ENE 9.7 mph 11.9 mph 93 % 0.0 in
00:26 2.9 °F 2.0 °F 1018.2 in NE 7.9 mph 11.9 mph 94 % 0.0 in
00:32 2.8 °F 2.0 °F 1018.2 in NE 7.6 mph 11.6 mph 94 % 0.0 in
00:51 2.4 °F 2.0 °F 1018.2 in ENE 7.6 mph 10.5 mph 93 % 0.0 in
01:02 2.3 °F 2.0 °F 1018.2 in ENE 7.9 mph 9.7 mph 94 % 0.0 in
01:11 2.2 °F 2.0 °F 1018.2 in NE 8.7 mph 10.1 mph 95 % 0.0 in
01:20 2.1 °F 2.0 °F 1018.2 in NE 7.9 mph 9.7 mph 95 % 0.0 in
01:42 2.0 °F 2.0 °F 1016.8 in ENE 7.2 mph 9.0 mph 95 % 0.0 in
01:47 1.9 °F 2.0 °F 1016.8 in East 9.0 mph 9.0 mph 96 % 0.0 in
01:52 1.9 °F 2.0 °F 1016.8 in Calm   9.3 mph 96 % 0.0 in
01:58 1.8 °F 1.0 °F 1016.8 in ENE 8.7 mph 9.0 mph 96 % 0.0 in
02:11 1.8 °F 1.0 °F 1016.8 in ENE 8.7 mph 9.7 mph 97 % 0.0 in
02:17 1.8 °F 1.0 °F 1016.8 in ENE 7.9 mph 9.7 mph 97 % 0.0 in
02:32 1.8 °F 2.0 °F 1016.8 in ENE 6.9 mph 10.5 mph 98 % 0.0 in
02:40 1.7 °F 2.0 °F 1016.8 in NE 7.6 mph 10.5 mph 98 % 0.0 in
02:49 1.6 °F 2.0 °F 1016.8 in Calm   9.7 mph 98 % 0.0 in
02:55 1.6 °F 2.0 °F 1016.8 in NE 7.6 mph 8.7 mph 98 % 0.0 in
03:00 1.5 °F 2.0 °F 1016.8 in NE 7.6 mph 8.7 mph 98 % 0.0 in
03:18 1.2 °F 1.0 °F 1016.8 in NNE 4.0 mph 7.6 mph 98 % 0.0 in
03:23 1.2 °F 1.0 °F 1016.8 in Calm   9.0 mph 98 % 0.0 in
03:30 1.1 °F 1.0 °F 1016.8 in NE 1.4 mph 7.6 mph 98 % 0.0 in
03:36 1.1 °F 1.0 °F 1016.8 in NE 4.7 mph 8.7 mph 98 % 0.0 in
03:44 1.0 °F 1.0 °F 1016.8 in NE 9.0 mph 9.7 mph 98 % 0.0 in
03:53 1.0 °F 1.0 °F 1016.8 in NE 7.9 mph 11.1 mph 98 % 0.0 in
03:58 1.0 °F 1.0 °F 1016.1 in NE 4.0 mph 11.1 mph 98 % 0.0 in
04:16 0.9 °F 1.0 °F 1016.8 in Calm   9.7 mph 98 % 0.0 in
04:28 0.9 °F 1.0 °F 1016.8 in Calm   9.0 mph 98 % 0.0 in
04:35 0.9 °F 1.0 °F 1016.8 in NNW 7.6 mph 10.1 mph 98 % 0.0 in
04:42 0.8 °F 1.0 °F 1016.8 in NE 7.9 mph 10.1 mph 98 % 0.0 in
04:49 0.8 °F 1.0 °F 1016.8 in NE 7.9 mph 9.7 mph 98 % 0.0 in
04:57 0.8 °F 1.0 °F 1016.8 in NE 4.3 mph 9.0 mph 98 % 0.0 in
05:02 0.7 °F 1.0 °F 1016.8 in NNE 6.4 mph 8.7 mph 98 % 0.0 in
05:08 0.6 °F 1.0 °F 1016.8 in NNE 5.5 mph 7.2 mph 98 % 0.0 in
05:13 0.6 °F 1.0 °F 1016.1 in NE 5.0 mph 6.4 mph 98 % 0.0 in
05:25 0.5 °F 1.0 °F 1016.1 in NNE 5.5 mph 5.8 mph 98 % 0.0 in
05:35 0.5 °F 1.0 °F 1018.2 in NE 1.8 mph 6.4 mph 98 % 0.0 in
05:42 0.6 °F 1.0 °F 1016.8 in NE 5.8 mph 6.1 mph 98 % 0.0 in
05:48 0.6 °F 1.0 °F 1016.8 in NNE 5.8 mph 6.1 mph 98 % 0.0 in
05:54 0.5 °F 1.0 °F 1016.8 in NNE 4.0 mph 6.4 mph 98 % 0.0 in
05:59 0.5 °F 1.0 °F 1016.8 in NNE 5.8 mph 6.4 mph 98 % 0.0 in
06:06 0.5 °F 1.0 °F 1016.8 in North 7.2 mph 7.9 mph 98 % 0.0 in
06:11 0.5 °F 1.0 °F 1016.8 in NE 1.8 mph 9.0 mph 98 % 0.0 in
06:16 0.5 °F 1.0 °F 1016.8 in NNW 5.8 mph 9.0 mph 98 % 0.0 in
06:25 0.4 °F 1.0 °F 1016.8 in NNE 4.3 mph 7.2 mph 98 % 0.0 in
06:31 0.4 °F 1.0 °F 1016.8 in Calm   8.7 mph 98 % 0.0 in
06:37 0.4 °F 1.0 °F 1016.8 in NE 6.9 mph 6.9 mph 98 % 0.0 in
06:42 0.4 °F 1.0 °F 1016.8 in NNE 6.4 mph 6.9 mph 98 % 0.0 in
07:00 0.4 °F 1.0 °F 1016.8 in Calm   6.4 mph 98 % 0.0 in
07:11 0.4 °F 1.0 °F 1018.2 in NNE 6.1 mph 6.9 mph 98 % 0.0 in
07:19 0.4 °F 1.0 °F 1018.2 in North 4.0 mph 6.4 mph 98 % 0.0 in
07:28 0.3 °F 1.0 °F 1016.8 in Calm   7.6 mph 98 % 0.0 in
07:41 0.4 °F 1.0 °F 1016.8 in NE 4.7 mph 6.4 mph 98 % 0.0 in
07:46 0.4 °F 1.0 °F 1016.8 in NNE 4.0 mph 6.1 mph 98 % 0.0 in
07:56 0.4 °F 1.0 °F 1016.8 in Calm   6.1 mph 98 % 0.0 in
08:11 0.4 °F 1.0 °F 1016.8 in NNE 5.8 mph 7.2 mph 98 % 0.0 in
08:17 0.4 °F 1.0 °F 1016.8 in NNE 4.3 mph 7.2 mph 98 % 0.0 in
08:22 0.5 °F 1.0 °F 1016.8 in North 6.4 mph 9.0 mph 98 % 0.0 in
08:29 0.4 °F 1.0 °F 1016.8 in NE 4.3 mph 8.7 mph 98 % 0.0 in
08:39 0.4 °F 1.0 °F 1016.8 in Calm   5.5 mph 98 % 0.0 in
08:44 0.4 °F 1.0 °F 1016.1 in Calm   5.5 mph 98 % 0.0 in
08:56 0.4 °F 1.0 °F 1016.8 in Calm     98 % 0.0 in
09:18 0.7 °F 1.0 °F 1016.8 in Calm     98 % 0.0 in
09:28 0.8 °F 1.0 °F 1016.8 in Calm   5.0 mph 98 % 0.0 in
09:36 0.9 °F 1.0 °F 1016.8 in Calm   5.0 mph 98 % 0.0 in
09:42 1.0 °F 1.0 °F 1016.8 in Calm   1.4 mph 98 % 0.0 in
09:51 1.0 °F 1.0 °F 1016.8 in Calm   4.3 mph 98 % 0.0 in
09:56 1.0 °F 1.0 °F 1016.8 in Calm   6.4 mph 98 % 0.0 in
10:01 1.2 °F 1.0 °F 1016.8 in Calm   6.4 mph 98 % 0.0 in
10:09 1.2 °F 1.0 °F 1016.8 in Calm   1.8 mph 98 % 0.0 in
10:20 1.2 °F 1.0 °F 1016.8 in ENE 4.3 mph 4.7 mph 98 % 0.0 in
10:30 1.2 °F 1.0 °F 1016.8 in Calm   4.7 mph 98 % 0.0 in
10:50 2.0 °F 2.0 °F 1018.2 in Calm   5.0 mph 98 % 0.0 in
10:58 2.0 °F 2.0 °F 1018.2 in Calm   3.2 mph 98 % 0.0 in
11:12 2.0 °F 2.0 °F 1018.2 in Calm   5.5 mph 98 % 0.0 in
11:18 2.0 °F 2.0 °F 1018.2 in Calm   5.0 mph 98 % 0.0 in
11:27 2.0 °F 2.0 °F 1018.2 in Calm   5.5 mph 98 % 0.0 in
11:33 2.0 °F 2.0 °F 1018.2 in East 4.3 mph 4.3 mph 98 % 0.0 in
11:40 2.0 °F 2.0 °F 1018.2 in East 3.2 mph 6.1 mph 98 % 0.0 in
11:47 2.0 °F 2.0 °F 1018.2 in Calm   3.2 mph 98 % 0.0 in
11:55 3.8 °F 4.0 °F 1018.2 in Calm   7.9 mph 98 % 0.0 in
12:00 3.9 °F 4.0 °F 1016.8 in Calm   7.9 mph 98 % 0.0 in
12:06 4.0 °F 4.0 °F 1016.8 in ESE 6.9 mph 7.6 mph 98 % 0.0 in
12:21 4.2 °F 4.0 °F 1016.8 in Calm   9.0 mph 98 % 0.0 in
12:26 4.2 °F 4.0 °F 1018.2 in ESE 4.7 mph 7.6 mph 98 % 0.0 in
12:34 4.5 °F 4.0 °F 1018.2 in SE 7.2 mph 9.7 mph 97 % 0.0 in
12:44 4.6 °F 4.0 °F 1016.8 in Calm   9.7 mph 96 % 0.0 in
12:53 4.8 °F 4.0 °F 1016.8 in SE 4.3 mph 6.4 mph 96 % 0.0 in
12:59 4.8 °F 4.0 °F 1016.8 in Calm   8.7 mph 95 % 0.0 in
13:08 5.0 °F 5.0 °F 1016.8 in SSE 5.0 mph 5.0 mph 95 % 0.0 in
13:21 5.2 °F 5.0 °F 1016.8 in Calm   7.9 mph 95 % 0.0 in
13:29 5.1 °F 4.0 °F 1016.8 in Calm   8.7 mph 93 % 0.0 in
13:48 5.3 °F 4.0 °F 1016.8 in Calm   6.9 mph 91 % 0.0 in
14:01 5.5 °F 5.0 °F 1016.8 in South 4.7 mph 8.7 mph 91 % 0.0 in
14:07 5.6 °F 4.0 °F 1016.8 in Calm   9.3 mph 90 % 0.0 in
14:21 5.5 °F 4.0 °F 1016.8 in Calm   12.2 mph 88 % 0.0 in
14:32 5.5 °F 4.0 °F 1016.1 in South 6.1 mph 9.0 mph 88 % 0.0 in
14:55 5.6 °F 4.0 °F 1016.8 in South 6.1 mph 10.5 mph 87 % 0.0 in
15:00 5.7 °F 4.0 °F 1016.8 in Calm   10.5 mph 88 % 0.0 in
15:08 6.1 °F 4.0 °F 1016.8 in SSE 3.5 mph 9.0 mph 87 % 0.0 in
15:14 6.3 °F 4.0 °F 1016.8 in Calm   6.4 mph 86 % 0.0 in
15:23 6.6 °F 5.0 °F 1016.8 in SE 5.5 mph 9.3 mph 86 % 0.0 in
15:38 6.8 °F 5.0 °F 1016.8 in Calm   4.3 mph 85 % 0.0 in
15:43 6.9 °F 5.0 °F 1016.8 in Calm   6.1 mph 85 % 0.0 in
15:51 6.8 °F 4.0 °F 1016.8 in SSE 5.0 mph 9.0 mph 84 % 0.0 in
15:56 6.6 °F 4.0 °F 1016.1 in South 4.7 mph 9.0 mph 83 % 0.0 in
16:03 6.4 °F 4.0 °F 1016.1 in Calm   9.3 mph 83 % 0.0 in
16:13 6.2 °F 4.0 °F 1016.1 in Calm   7.9 mph 83 % 0.0 in
16:21 5.9 °F 4.0 °F 1016.1 in Calm   5.8 mph 84 % 0.0 in
16:32 5.9 °F 4.0 °F 1016.1 in Calm   5.8 mph 84 % 0.0 in
16:40 5.9 °F 4.0 °F 1016.1 in Calm   5.0 mph 84 % 0.0 in
16:58 5.3 °F 3.0 °F 1016.8 in South 1.4 mph 4.7 mph 86 % 0.0 in
17:05 4.7 °F 3.0 °F 1016.8 in Calm   4.7 mph 87 % 0.0 in
17:10 4.7 °F 3.0 °F 1016.8 in Calm   1.4 mph 87 % 0.0 in
17:16 4.7 °F 3.0 °F 1016.8 in Calm     87 % 0.0 in
17:29 4.0 °F 2.0 °F 1016.1 in Calm     88 % 0.0 in
17:39 3.8 °F 2.0 °F 1016.1 in Calm     89 % 0.0 in
17:45 3.8 °F 2.0 °F 1016.8 in Calm     90 % 0.0 in
17:50 3.7 °F 2.0 °F 1016.8 in Calm     90 % 0.0 in
18:07 3.6 °F 3.0 °F 1016.8 in Calm   6.9 mph 92 % 0.0 in
18:15 3.7 °F 3.0 °F 1016.8 in Calm   6.4 mph 93 % 0.0 in
18:24 3.8 °F 3.0 °F 1016.8 in SSW 2.1 mph 5.8 mph 94 % 0.0 in
18:35 4.0 °F 3.0 °F 1016.8 in Calm   4.3 mph 94 % 0.0 in
18:41 4.1 °F 3.0 °F 1016.8 in Calm   5.8 mph 94 % 0.0 in
18:48 4.2 °F 3.0 °F 1016.8 in SSW 1.8 mph 5.8 mph 94 % 0.0 in
19:06 4.3 °F 3.0 °F 1016.8 in Calm   5.0 mph 94 % 0.0 in
19:12 4.4 °F 3.0 °F 1016.8 in Calm   4.7 mph 94 % 0.0 in
19:27 4.5 °F 4.0 °F 1016.8 in South 4.7 mph 6.9 mph 94 % 0.0 in
19:33 4.6 °F 4.0 °F 1016.8 in Calm   6.1 mph 94 % 0.0 in
19:42 4.6 °F 4.0 °F 1016.8 in Calm   5.0 mph 94 % 0.0 in
19:56 4.4 °F 3.0 °F 1016.8 in Calm   6.1 mph 94 % 0.0 in
20:02 4.3 °F 3.0 °F 1016.8 in Calm   4.3 mph 94 % 0.0 in
20:15 3.7 °F 3.0 °F 1016.1 in Calm     93 % 0.0 in
20:23 3.3 °F 2.0 °F 1016.1 in Calm     92 % 0.0 in
20:33 2.9 °F 2.0 °F 1016.8 in Calm     92 % 0.0 in
20:40 2.7 °F 2.0 °F 1016.8 in Calm   4.0 mph 93 % 0.0 in
20:52 2.3 °F 2.0 °F 1016.8 in Calm     93 % 0.0 in
20:59 2.0 °F 1.0 °F 1016.1 in Calm     93 % 0.0 in
21:07 2.1 °F 1.0 °F 1016.1 in Calm     94 % 0.0 in
21:15 2.0 °F 2.0 °F 1016.8 in Calm   4.3 mph 95 % 0.0 in
21:24 1.9 °F 2.0 °F 1016.8 in South 2.1 mph 6.1 mph 96 % 0.0 in
21:32 1.8 °F 1.0 °F 1016.8 in Calm   4.7 mph 97 % 0.0 in
21:43 1.7 °F 1.0 °F 1016.8 in Calm     97 % 0.0 in
21:48 1.6 °F 1.0 °F 1016.8 in Calm     97 % 0.0 in
21:54 1.6 °F 1.0 °F 1016.8 in Calm     97 % 0.0 in
22:00 1.5 °F 1.0 °F 1016.1 in Calm     97 % 0.0 in
22:08 1.6 °F 2.0 °F 1016.1 in Calm   4.3 mph 98 % 0.0 in
22:26 1.1 °F 1.0 °F 1016.8 in Calm     97 % 0.0 in
22:31 0.9 °F 1.0 °F 1016.8 in Calm     98 % 0.0 in
22:39 0.7 °F 1.0 °F 1016.8 in Calm     98 % 0.0 in
22:44 0.7 °F 1.0 °F 1016.8 in Calm   4.3 mph 98 % 0.0 in
22:51 0.8 °F 1.0 °F 1016.8 in Calm   4.7 mph 98 % 0.0 in
23:08 0.8 °F 1.0 °F 1016.8 in Calm   1.4 mph 98 % 0.0 in
23:17 0.9 °F 1.0 °F 1016.1 in Calm   4.3 mph 98 % 0.0 in
23:23 1.0 °F 1.0 °F 1016.1 in Calm     98 % 0.0 in
23:31 1.0 °F 1.0 °F 1016.8 in West 4.7 mph 6.4 mph 98 % 0.0 in
23:37 1.0 °F 1.0 °F 1016.8 in Calm   7.6 mph 98 % 0.0 in
23:47 0.9 °F 1.0 °F 1016.8 in Calm   6.9 mph 98 % 0.0 in
23:57 0.4 °F 1.0 °F 1016.8 in Calm     98 % 0.0 in
Le Gheer Warneton
Courtoisie de Weather Underground - 1.5 mb

Mise a jour : 18/02/2018 06:24:11
Généré par Cumulus 1.9.4 (1099)